Dades meteomassalio
Diari Summary for Abril 29, 2017 Units:  Metric    English   Both
« Previous Day
Next Day »
Diari Semanal Mensual Anual Personalitzat
  Maxima: Minima: Mijana:
Temperatura: 16.4 °C 1.8 °C 10.4 °C
Rosada: 9.7 °C 0.4 °C 5.6 °C
Humitat: 91 % 49 % 74 %
Velocitat del vent: 25.9 km/h 0.0 km/h 6.6 km/h
Racha vent: 25.9 km/h - -
Vent:- - South
Pressio: 1017.2 hPa 1012.1 hPa -
Pluja: 0.5 mm    
Historical Graphs
 
 
Tabular Data for Abril 29, 2017
Time Temperature Dew Point Pressure Wind Wind Speed Wind Gust Humidity Rainfall Rate (Hourly) solar Conditions
00:04 9.2 °C 4.8 °C 1017.2 hPa Calm     74 % 0.0 mm 0.0 W/m2 CLR
00:09 9.1 °C 4.8 °C 1017.2 hPa Calm     75 % 0.0 mm 0.0 W/m2 CLR
00:14 8.9 °C 4.7 °C 1017.2 hPa Calm     75 % 0.0 mm 0.0 W/m2 CLR
00:19 8.8 °C 4.8 °C 1017.2 hPa Calm     76 % 0.0 mm 0.0 W/m2 CLR
00:24 8.8 °C 4.8 °C 1017.2 hPa Calm     76 % 0.0 mm 0.0 W/m2 CLR
00:29 8.7 °C 4.7 °C 1017.2 hPa Calm     76 % 0.0 mm 0.0 W/m2 CLR
00:34 8.7 °C 4.9 °C 1017.2 hPa Calm     77 % 0.0 mm 0.0 W/m2 CLR
00:39 8.7 °C 4.8 °C 1017.2 hPa Calm     77 % 0.0 mm 0.0 W/m2 CLR
00:44 8.6 °C 4.8 °C 1017.2 hPa Calm     77 % 0.0 mm 0.0 W/m2 CLR
00:49 8.6 °C 4.8 °C 1017.2 hPa Calm     77 % 0.0 mm 0.0 W/m2 CLR
00:54 8.5 °C 4.7 °C 1017.2 hPa Calm     77 % 0.0 mm 0.0 W/m2 CLR
00:59 8.4 °C 4.6 °C 1017.2 hPa Calm     77 % 0.0 mm 0.0 W/m2 CLR
01:04 8.2 °C 4.6 °C 1017.2 hPa Calm     78 % 0.0 mm 0.0 W/m2 CLR
01:09 8.1 °C 4.4 °C 1017.2 hPa Calm     78 % 0.0 mm 0.0 W/m2 CLR
01:14 8.0 °C 4.6 °C 1017.2 hPa Calm     79 % 0.0 mm 0.0 W/m2 CLR
01:19 8.0 °C 4.6 °C 1017.2 hPa Calm     79 % 0.0 mm 0.0 W/m2 CLR
01:24 7.8 °C 4.4 °C 1017.2 hPa Calm     79 % 0.0 mm 0.0 W/m2 CLR
01:29 7.6 °C 4.2 °C 1016.8 hPa Calm     79 % 0.0 mm 0.0 W/m2 CLR
01:34 7.4 °C 4.2 °C 1016.8 hPa Calm     80 % 0.0 mm 0.0 W/m2 CLR
01:39 7.3 °C 4.2 °C 1016.8 hPa Calm     81 % 0.0 mm 0.0 W/m2 CLR
01:44 7.1 °C 4.1 °C 1016.8 hPa Calm     81 % 0.0 mm 0.0 W/m2 CLR
01:49 6.9 °C 3.8 °C 1016.8 hPa Calm     81 % 0.0 mm 0.0 W/m2 CLR
01:54 6.7 °C 3.9 °C 1016.8 hPa Calm     82 % 0.0 mm 0.0 W/m2 CLR
01:59 6.5 °C 3.7 °C 1016.8 hPa Calm     82 % 0.0 mm 0.0 W/m2 CLR
02:00 6.5 °C 3.7 °C 1016.8 hPa Calm     82 % 0.0 mm 0.0 W/m2 CLR
02:05 6.3 °C 3.7 °C 1016.8 hPa Calm     83 % 0.0 mm 0.0 W/m2 CLR
02:10 6.2 °C 3.5 °C 1016.8 hPa Calm     83 % 0.0 mm 0.0 W/m2 CLR
02:15 6.1 °C 3.6 °C 1016.8 hPa Calm     84 % 0.0 mm 0.0 W/m2 CLR
02:20 5.9 °C 3.4 °C 1016.8 hPa Calm     84 % 0.0 mm 0.0 W/m2 CLR
02:25 5.8 °C 3.4 °C 1016.8 hPa Calm     85 % 0.0 mm 0.0 W/m2 CLR
02:30 5.7 °C 3.4 °C 1016.8 hPa Calm     85 % 0.0 mm 0.0 W/m2 CLR
02:35 5.7 °C 3.3 °C 1016.8 hPa Calm     85 % 0.0 mm 0.0 W/m2 CLR
02:40 5.6 °C 3.2 °C 1016.8 hPa Calm     85 % 0.0 mm 0.0 W/m2 CLR
02:45 5.4 °C 3.1 °C 1016.8 hPa Calm     85 % 0.0 mm 0.0 W/m2 CLR
02:50 5.3 °C 2.9 °C 1016.8 hPa Calm     85 % 0.0 mm 0.0 W/m2 CLR
02:55 5.1 °C 2.9 °C 1016.8 hPa Calm     86 % 0.0 mm 0.0 W/m2 CLR
03:00 4.9 °C 2.8 °C 1016.5 hPa Calm     86 % 0.0 mm 0.0 W/m2 CLR
03:05 4.9 °C 2.9 °C 1016.8 hPa Calm     87 % 0.0 mm 0.0 W/m2 CLR
03:10 4.9 °C 2.9 °C 1016.5 hPa Calm     87 % 0.0 mm 0.0 W/m2 CLR
03:15 4.8 °C 2.8 °C 1016.5 hPa Calm     87 % 0.0 mm 0.0 W/m2 CLR
03:20 4.7 °C 2.7 °C 1016.5 hPa Calm     87 % 0.0 mm 0.0 W/m2 CLR
03:25 4.6 °C 2.6 °C 1016.5 hPa Calm     87 % 0.0 mm 0.0 W/m2 CLR
03:30 4.5 °C 2.5 °C 1016.5 hPa Calm     87 % 0.0 mm 0.0 W/m2 CLR
03:35 4.4 °C 2.6 °C 1016.5 hPa Calm     88 % 0.0 mm 0.0 W/m2 CLR
03:40 4.4 °C 2.6 °C 1016.5 hPa Calm     88 % 0.0 mm 0.0 W/m2 CLR
03:45 4.3 °C 2.4 °C 1016.5 hPa Calm     88 % 0.0 mm 0.0 W/m2 CLR
03:50 4.2 °C 2.4 °C 1016.5 hPa Calm     88 % 0.0 mm 0.0 W/m2 CLR
03:55 4.2 °C 2.3 °C 1016.5 hPa Calm     88 % 0.0 mm 0.0 W/m2 CLR
04:00 4.1 °C 2.2 °C 1016.5 hPa Calm     88 % 0.0 mm 0.0 W/m2 CLR
04:05 4.0 °C 2.2 °C 1016.5 hPa Calm     88 % 0.0 mm 0.0 W/m2 CLR
04:10 3.9 °C 2.1 °C 1016.5 hPa Calm     88 % 0.0 mm 0.0 W/m2 CLR
04:15 3.9 °C 2.3 °C 1016.5 hPa Calm     89 % 0.0 mm 0.0 W/m2 CLR
04:20 3.8 °C 2.0 °C 1016.5 hPa Calm     88 % 0.0 mm 0.0 W/m2 CLR
04:25 3.8 °C 2.1 °C 1016.5 hPa Calm     89 % 0.0 mm 0.0 W/m2 CLR
04:30 3.7 °C 2.0 °C 1016.5 hPa Calm     89 % 0.0 mm 0.0 W/m2 CLR
04:35 3.6 °C 1.9 °C 1016.5 hPa Calm     89 % 0.0 mm 0.0 W/m2 CLR
04:40 3.5 °C 1.8 °C 1016.5 hPa Calm     89 % 0.0 mm 0.0 W/m2 CLR
04:45 3.4 °C 1.6 °C 1016.5 hPa Calm     88 % 0.0 mm 0.0 W/m2 CLR
04:50 3.3 °C 1.6 °C 1016.5 hPa Calm     89 % 0.0 mm 0.0 W/m2 CLR
04:55 3.3 °C 1.6 °C 1016.1 hPa Calm     89 % 0.0 mm 0.0 W/m2 CLR
05:00 3.2 °C 1.6 °C 1016.1 hPa Calm     89 % 0.0 mm 0.0 W/m2 CLR
05:05 3.1 °C 1.5 °C 1016.1 hPa Calm     89 % 0.0 mm 0.0 W/m2 CLR
05:10 3.1 °C 1.5 °C 1016.1 hPa Calm     89 % 0.0 mm 0.0 W/m2 CLR
05:15 3.1 °C 1.4 °C 1016.1 hPa Calm     89 % 0.0 mm 0.0 W/m2 CLR
05:20 3.0 °C 1.4 °C 1016.1 hPa Calm     89 % 0.0 mm 0.0 W/m2 CLR
05:25 2.8 °C 1.2 °C 1016.1 hPa Calm     89 % 0.0 mm 0.0 W/m2 CLR
05:30 2.8 °C 1.3 °C 1016.1 hPa Calm     90 % 0.0 mm 0.0 W/m2 CLR
05:35 2.9 °C 1.4 °C 1016.1 hPa Calm     90 % 0.0 mm 0.0 W/m2 CLR
05:40 2.8 °C 1.3 °C 1016.1 hPa Calm     90 % 0.0 mm 0.0 W/m2 CLR
05:45 2.7 °C 1.2 °C 1016.1 hPa Calm     90 % 0.0 mm 0.0 W/m2 CLR
05:50 2.6 °C 1.1 °C 1016.1 hPa Calm     90 % 0.0 mm 0.0 W/m2 CLR
05:55 2.5 °C 1.0 °C 1016.1 hPa Calm     90 % 0.0 mm 0.0 W/m2 CLR
06:00 2.4 °C 0.9 °C 1016.1 hPa Calm     90 % 0.0 mm 0.0 W/m2 CLR
06:05 2.3 °C 0.8 °C 1016.5 hPa Calm     90 % 0.0 mm 0.0 W/m2 CLR
06:10 2.3 °C 0.8 °C 1016.1 hPa Calm     90 % 0.0 mm 0.0 W/m2 CLR
06:16 2.3 °C 0.8 °C 1016.1 hPa Calm     90 % 0.0 mm 0.0 W/m2 CLR
06:21 2.2 °C 0.8 °C 1016.5 hPa Calm     90 % 0.0 mm 0.0 W/m2 CLR
06:26 2.2 °C 0.7 °C 1016.5 hPa Calm     90 % 0.0 mm 0.0 W/m2 CLR
06:31 2.1 °C 0.7 °C 1016.5 hPa Calm     90 % 0.0 mm 0.0 W/m2 CLR
06:36 2.1 °C 0.6 °C 1016.5 hPa Calm     90 % 0.0 mm 0.0 W/m2 CLR
06:41 1.9 °C 0.5 °C 1016.5 hPa Calm     90 % 0.0 mm 0.0 W/m2 CLR
06:46 1.9 °C 0.4 °C 1016.5 hPa Calm     90 % 0.0 mm 0.0 W/m2 CLR
06:51 1.8 °C 0.4 °C 1016.5 hPa Calm     90 % 0.0 mm 0.0 W/m2 CLR
06:56 1.8 °C 0.5 °C 1016.5 hPa Calm     91 % 0.0 mm 0.0 W/m2 CLR
07:01 1.9 °C 0.6 °C 1016.5 hPa Calm     91 % 0.0 mm 5.0 W/m2 OVC
07:06 1.9 °C 0.6 °C 1016.5 hPa Calm     91 % 0.0 mm 7.0 W/m2 BKN
07:11 1.8 °C 0.4 °C 1016.5 hPa Calm     91 % 0.0 mm 11.0 W/m2 BKN
07:16 1.8 °C 0.4 °C 1016.5 hPa Calm     91 % 0.0 mm 12.0 W/m2 BKN
07:21 1.8 °C 0.5 °C 1016.5 hPa Calm     91 % 0.0 mm 16.0 W/m2 BKN
07:26 2.0 °C 0.7 °C 1016.5 hPa Calm     91 % 0.0 mm 19.0 W/m2 BKN
07:31 2.1 °C 0.8 °C 1016.5 hPa Calm     91 % 0.0 mm 26.0 W/m2 BKN
07:36 2.1 °C 0.8 °C 1016.5 hPa Calm     91 % 0.0 mm 32.0 W/m2 BKN
07:41 2.3 °C 0.9 °C 1016.5 hPa Calm     91 % 0.0 mm 46.0 W/m2 SCT
07:46 2.4 °C 1.1 °C 1016.5 hPa Calm     91 % 0.0 mm 44.0 W/m2 BKN
07:51 2.5 °C 1.2 °C 1016.5 hPa Calm     91 % 0.0 mm 67.0 W/m2 FEW
07:56 2.8 °C 1.5 °C 1016.5 hPa Calm     91 % 0.0 mm 86.0 W/m2 CLR
08:01 3.1 °C 1.8 °C 1016.5 hPa Calm     91 % 0.0 mm 102.0 W/m2 FEW
08:06 3.5 °C 2.2 °C 1016.5 hPa Calm     91 % 0.0 mm 121.0 W/m2 CLR
08:11 3.8 °C 2.3 °C 1016.5 hPa Calm     90 % 0.0 mm 137.0 W/m2 CLR
08:16 4.1 °C 2.6 °C 1016.5 hPa Calm     90 % 0.0 mm 155.0 W/m2 CLR
08:21 4.6 °C 3.1 °C 1016.5 hPa Calm     90 % 0.0 mm 174.0 W/m2 CLR
08:26 5.1 °C 3.4 °C 1016.5 hPa Calm     89 % 0.0 mm 193.0 W/m2 CLR
08:31 5.3 °C 3.5 °C 1016.5 hPa Calm     88 % 0.0 mm 214.0 W/m2 CLR
08:36 5.7 °C 3.9 °C 1016.5 hPa Calm     88 % 0.0 mm 220.0 W/m2 CLR
08:41 6.3 °C 4.3 °C 1016.5 hPa Calm     87 % 0.0 mm 199.0 W/m2 CLR
08:46 7.0 °C 4.8 °C 1016.5 hPa Calm     86 % 0.0 mm 264.0 W/m2 CLR
08:51 7.5 °C 4.8 °C 1016.5 hPa Calm     83 % 0.0 mm 285.0 W/m2 CLR
08:56 7.9 °C 5.1 °C 1016.5 hPa Calm     82 % 0.0 mm 301.0 W/m2 CLR
09:01 8.4 °C 5.3 °C 1016.1 hPa Calm     81 % 0.0 mm 272.0 W/m2 CLR
09:06 8.9 °C 5.4 °C 1016.1 hPa Calm     79 % 0.0 mm 345.0 W/m2 CLR
09:16 9.7 °C 5.9 °C 1016.1 hPa Calm     77 % 0.0 mm 376.0 W/m2 CLR
09:19 10.1 °C 6.0 °C 1016.1 hPa Calm     76 % 0.0 mm 336.0 W/m2 CLR
09:24 10.7 °C 6.1 °C 1016.1 hPa Calm     73 % 0.0 mm 120.0 W/m2 CLR
09:29 11.2 °C 6.2 °C 1015.8 hPa Calm     71 % 0.0 mm 388.0 W/m2 CLR
09:34 11.6 °C 6.5 °C 1015.8 hPa Calm     71 % 0.0 mm 371.0 W/m2 CLR
09:39 11.9 °C 6.6 °C 1015.8 hPa Calm     70 % 0.0 mm 439.0 W/m2 CLR
09:44 12.1 °C 6.6 °C 1015.8 hPa Calm     69 % 0.0 mm 466.0 W/m2 CLR
09:49 12.3 °C 6.6 °C 1015.8 hPa Calm     68 % 0.0 mm 508.0 W/m2 CLR
09:54 12.6 °C 6.6 °C 1015.8 hPa Calm     67 % 0.0 mm 564.0 W/m2 CLR
09:59 12.9 °C 6.4 °C 1015.5 hPa Calm     65 % 0.0 mm 557.0 W/m2 CLR
10:04 13.2 °C 6.3 °C 1015.5 hPa Calm     63 % 0.0 mm 520.0 W/m2 CLR
10:09 13.5 °C 6.1 °C 1015.5 hPa Calm     61 % 0.0 mm 355.0 W/m2 CLR
10:14 13.7 °C 5.8 °C 1015.5 hPa ESE 7.4 km/h 7.4 km/h 59 % 0.0 mm 186.0 W/m2 CLR
10:19 13.7 °C 5.8 °C 1015.5 hPa SE 7.4 km/h 7.4 km/h 59 % 0.0 mm 605.0 W/m2 CLR
10:24 14.1 °C 5.9 °C 1015.5 hPa South 9.3 km/h 9.3 km/h 58 % 0.0 mm 577.0 W/m2 CLR
10:29 14.7 °C 6.0 °C 1015.5 hPa Calm     56 % 0.0 mm 589.0 W/m2 CLR
10:34 14.9 °C 6.2 °C 1015.5 hPa ENE 3.7 km/h 3.7 km/h 56 % 0.0 mm 584.0 W/m2 CLR
10:39 15.0 °C 6.3 °C 1015.5 hPa ESE 9.7 km/h 9.7 km/h 56 % 0.0 mm 619.0 W/m2 CLR
10:44 14.9 °C 6.2 °C 1015.5 hPa East 5.6 km/h 5.6 km/h 56 % 0.0 mm 652.0 W/m2 CLR
10:49 15.0 °C 6.3 °C 1015.1 hPa East 5.6 km/h 5.6 km/h 56 % 0.0 mm 710.0 W/m2 CLR
10:54 15.2 °C 5.9 °C 1015.1 hPa ENE 9.3 km/h 9.3 km/h 54 % 0.0 mm 729.0 W/m2 CLR
10:59 15.6 °C 6.8 °C 1015.1 hPa SE 16.1 km/h 16.1 km/h 56 % 0.0 mm 675.0 W/m2 CLR
11:04 15.4 °C 6.4 °C 1015.1 hPa ESE 9.3 km/h 9.3 km/h 55 % 0.0 mm 552.0 W/m2 CLR
11:09 15.4 °C 6.1 °C 1015.1 hPa East 13.0 km/h 13.0 km/h 54 % 0.0 mm 540.0 W/m2 CLR
11:14 15.8 °C 5.7 °C 1015.1 hPa SE 11.1 km/h 11.1 km/h 51 % 0.0 mm 884.0 W/m2 CLR
11:19 16.1 °C 5.6 °C 1015.1 hPa SE 14.8 km/h 14.8 km/h 50 % 0.0 mm 953.0 W/m2 CLR
11:24 16.4 °C 5.7 °C 1014.8 hPa SSW 20.9 km/h 20.9 km/h 49 % 0.0 mm 244.0 W/m2 CLR
11:29 15.9 °C 5.4 °C 1014.8 hPa WSW 9.3 km/h 9.3 km/h 50 % 0.0 mm 274.0 W/m2 CLR
11:34 16.0 °C 5.6 °C 1014.8 hPa West 11.1 km/h 11.1 km/h 50 % 0.0 mm 1025.0 W/m2 CLR
11:39 16.4 °C 5.7 °C 1014.8 hPa SSE 17.7 km/h 17.7 km/h 49 % 0.0 mm 1025.0 W/m2 CLR
11:44 16.3 °C 5.6 °C 1014.8 hPa SSW 18.5 km/h 18.5 km/h 49 % 0.0 mm 380.0 W/m2 CLR
11:49 16.0 °C 5.6 °C 1014.8 hPa ESE 13.0 km/h 13.0 km/h 50 % 0.0 mm 360.0 W/m2 CLR
11:54 16.0 °C 5.8 °C 1014.8 hPa SSW 8.0 km/h 8.0 km/h 51 % 0.0 mm 524.0 W/m2 CLR
11:59 16.0 °C 5.8 °C 1014.8 hPa SSW 14.5 km/h 14.5 km/h 51 % 0.0 mm 418.0 W/m2 CLR
12:04 16.1 °C 5.6 °C 1014.8 hPa South 9.3 km/h 9.3 km/h 50 % 0.0 mm 376.0 W/m2 CLR
12:09 15.8 °C 5.1 °C 1014.8 hPa SW 20.4 km/h 20.4 km/h 49 % 0.0 mm 378.0 W/m2 CLR
12:14 15.6 °C 5.2 °C 1014.8 hPa SW 18.5 km/h 18.5 km/h 50 % 0.0 mm 445.0 W/m2 CLR
12:19 15.6 °C 5.5 °C 1014.8 hPa SSE 14.8 km/h 14.8 km/h 51 % 0.0 mm 459.0 W/m2 CLR
12:24 15.7 °C 5.6 °C 1014.4 hPa SW 20.9 km/h 20.9 km/h 51 % 0.0 mm 480.0 W/m2 CLR
12:29 15.6 °C 5.8 °C 1014.4 hPa SSW 24.1 km/h 24.1 km/h 52 % 0.0 mm 559.0 W/m2 CLR
12:34 15.6 °C 5.4 °C 1014.8 hPa South 16.7 km/h 16.7 km/h 51 % 0.0 mm 564.0 W/m2 CLR
12:39 15.6 °C 5.8 °C 1014.4 hPa South 17.7 km/h 17.7 km/h 52 % 0.0 mm 617.0 W/m2 CLR
12:44 15.9 °C 5.8 °C 1014.4 hPa South 18.5 km/h 18.5 km/h 51 % 0.0 mm 613.0 W/m2 CLR
12:49 15.8 °C 5.7 °C 1014.4 hPa SSW 14.8 km/h 14.8 km/h 51 % 0.0 mm 364.0 W/m2 CLR
12:54 15.9 °C 6.3 °C 1014.4 hPa South 24.1 km/h 24.1 km/h 53 % 0.0 mm 339.0 W/m2 CLR
12:59 15.5 °C 5.9 °C 1014.4 hPa South 24.1 km/h 24.1 km/h 53 % 0.0 mm 279.0 W/m2 CLR
13:04 15.1 °C 6.1 °C 1014.4 hPa SSW 18.5 km/h 18.5 km/h 55 % 0.0 mm 320.0 W/m2 CLR
13:09 15.1 °C 6.1 °C 1014.4 hPa SW 24.1 km/h 24.1 km/h 55 % 0.0 mm 418.0 W/m2 CLR
13:15 15.2 °C 6.2 °C 1014.1 hPa South 17.7 km/h 17.7 km/h 55 % 0.0 mm 554.0 W/m2 CLR
13:19 15.4 °C 6.7 °C 1014.4 hPa SE 18.5 km/h 18.5 km/h 56 % 0.0 mm 594.0 W/m2 CLR
13:25 15.6 °C 6.6 °C 1014.1 hPa SSE 24.1 km/h 24.1 km/h 55 % 0.0 mm 710.0 W/m2 CLR
13:26 15.4 °C 6.4 °C 1014.1 hPa SE 20.4 km/h 20.4 km/h 55 % 0.0 mm 710.0 W/m2 CLR
13:31 15.5 °C 6.8 °C 1014.1 hPa SSE 16.7 km/h 16.7 km/h 56 % 0.0 mm 603.0 W/m2 CLR
13:36 15.5 °C 6.8 °C 1014.1 hPa SSE 18.5 km/h 18.5 km/h 56 % 0.0 mm 543.0 W/m2 CLR
13:41 15.6 °C 6.8 °C 1013.8 hPa South 24.1 km/h 24.1 km/h 56 % 0.0 mm 603.0 W/m2 CLR
13:46 15.7 °C 6.9 °C 1013.8 hPa SE 22.2 km/h 22.2 km/h 56 % 0.0 mm 838.0 W/m2 CLR
13:51 15.5 °C 6.8 °C 1013.8 hPa SSE 18.5 km/h 18.5 km/h 56 % 0.0 mm 476.0 W/m2 CLR
13:56 15.5 °C 6.8 °C 1013.8 hPa South 18.5 km/h 18.5 km/h 56 % 0.0 mm 522.0 W/m2 CLR
14:01 15.6 °C 6.8 °C 1013.8 hPa SSE 20.4 km/h 20.4 km/h 56 % 0.0 mm 519.0 W/m2 CLR
14:06 15.6 °C 7.1 °C 1013.8 hPa South 24.1 km/h 24.1 km/h 57 % 0.0 mm 425.0 W/m2 CLR
14:11 15.2 °C 6.7 °C 1013.8 hPa South 14.8 km/h 14.8 km/h 57 % 0.0 mm 320.0 W/m2 CLR
14:16 15.1 °C 6.9 °C 1013.8 hPa SSE 16.7 km/h 16.7 km/h 58 % 0.0 mm 350.0 W/m2 CLR
14:21 15.2 °C 6.9 °C 1013.4 hPa WSW 11.3 km/h 11.3 km/h 58 % 0.0 mm 397.0 W/m2 CLR
14:26 15.4 °C 7.2 °C 1013.4 hPa SSW 16.7 km/h 16.7 km/h 58 % 0.0 mm 415.0 W/m2 CLR
14:31 15.3 °C 7.3 °C 1013.4 hPa SSE 22.2 km/h 22.2 km/h 59 % 0.0 mm 487.0 W/m2 CLR
14:36 15.1 °C 7.3 °C 1013.4 hPa SSE 18.5 km/h 18.5 km/h 60 % 0.0 mm 431.0 W/m2 CLR
14:41 15.0 °C 7.6 °C 1013.4 hPa SSE 14.5 km/h 14.5 km/h 61 % 0.0 mm 450.0 W/m2 CLR
14:46 15.2 °C 8.0 °C 1013.4 hPa South 13.0 km/h 13.0 km/h 62 % 0.0 mm 664.0 W/m2 CLR
14:51 15.6 °C 7.8 °C 1013.4 hPa South 12.9 km/h 12.9 km/h 60 % 0.0 mm 459.0 W/m2 CLR
14:56 15.2 °C 7.5 °C 1013.4 hPa SE 16.1 km/h 16.1 km/h 60 % 0.0 mm 399.0 W/m2 CLR
15:01 15.3 °C 7.3 °C 1013.4 hPa South 13.0 km/h 13.0 km/h 59 % 0.0 mm 487.0 W/m2 CLR
15:06 15.4 °C 7.4 °C 1013.4 hPa South 20.4 km/h 20.4 km/h 59 % 0.0 mm 434.0 W/m2 CLR
15:11 15.6 °C 7.6 °C 1013.4 hPa SE 18.5 km/h 18.5 km/h 59 % 0.0 mm 443.0 W/m2 CLR
15:16 15.6 °C 7.3 °C 1013.4 hPa East 18.5 km/h 18.5 km/h 58 % 0.0 mm 448.0 W/m2 CLR
15:21 15.6 °C 7.4 °C 1013.1 hPa SE 17.7 km/h 17.7 km/h 58 % 0.0 mm 515.0 W/m2 CLR
15:26 15.7 °C 7.2 °C 1013.1 hPa SE 20.4 km/h 20.4 km/h 57 % 0.0 mm 450.0 W/m2 CLR
15:31 15.7 °C 7.5 °C 1013.1 hPa SE 19.3 km/h 19.3 km/h 58 % 0.0 mm 343.0 W/m2 CLR
15:36 15.8 °C 7.3 °C 1013.1 hPa SSE 16.7 km/h 16.7 km/h 57 % 0.0 mm 424.0 W/m2 CLR
15:41 15.9 °C 7.4 °C 1013.1 hPa SE 18.5 km/h 18.5 km/h 57 % 0.0 mm 401.0 W/m2 CLR
15:46 16.1 °C 7.0 °C 1013.1 hPa SSE 18.5 km/h 18.5 km/h 55 % 0.0 mm 404.0 W/m2 CLR
15:51 16.1 °C 7.1 °C 1013.1 hPa SSW 18.5 km/h 18.5 km/h 55 % 0.0 mm 492.0 W/m2 CLR
15:56 16.2 °C 7.4 °C 1012.8 hPa South 11.1 km/h 11.1 km/h 56 % 0.0 mm 566.0 W/m2 CLR
16:01 16.2 °C 6.8 °C 1012.8 hPa SSE 18.5 km/h 18.5 km/h 54 % 0.0 mm 427.0 W/m2 CLR
16:06 16.2 °C 7.2 °C 1012.8 hPa SSW 24.1 km/h 24.1 km/h 55 % 0.0 mm 302.0 W/m2 CLR
16:11 16.1 °C 6.7 °C 1012.8 hPa SSW 20.9 km/h 20.9 km/h 54 % 0.0 mm 290.0 W/m2 CLR
16:16 16.0 °C 6.7 °C 1012.8 hPa SSW 18.5 km/h 18.5 km/h 54 % 0.0 mm 394.0 W/m2 CLR
16:17 16.0 °C 6.7 °C 1012.8 hPa South 24.1 km/h 24.1 km/h 54 % 0.0 mm 394.0 W/m2 CLR
16:22 16.1 °C 7.0 °C 1012.8 hPa SSW 22.2 km/h 22.2 km/h 55 % 0.0 mm 534.0 W/m2 CLR
16:27 15.9 °C 6.9 °C 1012.8 hPa SSW 16.1 km/h 16.1 km/h 55 % 0.0 mm 410.0 W/m2 CLR
16:32 15.8 °C 7.1 °C 1012.8 hPa South 19.3 km/h 19.3 km/h 56 % 0.0 mm 346.0 W/m2 CLR
16:37 15.6 °C 6.8 °C 1012.8 hPa South 22.2 km/h 22.2 km/h 56 % 0.0 mm 475.0 W/m2 CLR
16:42 15.6 °C 7.1 °C 1012.8 hPa SW 16.7 km/h 16.7 km/h 57 % 0.0 mm 276.0 W/m2 CLR
16:47 15.4 °C 6.9 °C 1012.8 hPa South 22.2 km/h 22.2 km/h 57 % 0.0 mm 234.0 W/m2 CLR
16:53 15.3 °C 7.1 °C 1012.8 hPa South 24.1 km/h 24.1 km/h 58 % 0.0 mm 330.0 W/m2 CLR
16:58 15.3 °C 7.1 °C 1012.8 hPa South 22.2 km/h 22.2 km/h 58 % 0.0 mm 260.0 W/m2 CLR
17:03 15.2 °C 7.0 °C 1012.8 hPa South 14.8 km/h 14.8 km/h 58 % 0.0 mm 188.0 W/m2 CLR
17:08 15.1 °C 7.1 °C 1012.8 hPa SW 16.7 km/h 16.7 km/h 59 % 0.0 mm 171.0 W/m2 CLR
17:13 15.1 °C 7.2 °C 1012.8 hPa South 16.7 km/h 16.7 km/h 59 % 0.0 mm 135.0 W/m2 CLR
17:18 15.1 °C 7.2 °C 1012.8 hPa SSW 20.4 km/h 20.4 km/h 59 % 0.0 mm 120.0 W/m2 CLR
17:23 15.0 °C 7.3 °C 1012.8 hPa SSW 9.3 km/h 9.3 km/h 60 % 0.0 mm 86.0 W/m2 CLR
17:28 14.8 °C 7.1 °C 1012.8 hPa SSW 24.1 km/h 24.1 km/h 60 % 0.0 mm 84.0 W/m2 CLR
17:33 14.8 °C 7.1 °C 1012.8 hPa SSW 24.1 km/h 24.1 km/h 60 % 0.0 mm 100.0 W/m2 CLR
17:34 14.8 °C 7.1 °C 1012.8 hPa South 25.9 km/h 25.9 km/h 60 % 0.0 mm 100.0 W/m2 CLR
17:39 14.7 °C 7.1 °C 1012.4 hPa South 20.4 km/h 20.4 km/h 60 % 0.0 mm 90.0 W/m2 CLR
17:44 14.7 °C 7.1 °C 1012.4 hPa South 24.1 km/h 24.1 km/h 60 % 0.0 mm 104.0 W/m2 CLR
17:49 14.7 °C 7.2 °C 1012.4 hPa SW 13.0 km/h 13.0 km/h 61 % 0.0 mm 114.0 W/m2 CLR
17:54 14.7 °C 7.3 °C 1012.4 hPa SW 18.5 km/h 18.5 km/h 61 % 0.0 mm 123.0 W/m2 CLR
17:59 14.7 °C 7.3 °C 1012.4 hPa SSW 18.5 km/h 18.5 km/h 61 % 0.0 mm 102.0 W/m2 CLR
18:04 14.7 °C 7.3 °C 1012.4 hPa South 20.4 km/h 20.4 km/h 61 % 0.0 mm 97.0 W/m2 CLR
18:09 14.6 °C 7.2 °C 1012.4 hPa SSW 20.4 km/h 20.4 km/h 61 % 0.0 mm 91.0 W/m2 CLR
18:14 14.6 °C 7.3 °C 1012.4 hPa SW 11.1 km/h 11.1 km/h 62 % 0.0 mm 84.0 W/m2 CLR
18:19 14.5 °C 7.8 °C 1012.4 hPa SSW 13.0 km/h 13.0 km/h 64 % 0.0 mm 91.0 W/m2 CLR
18:24 14.3 °C 7.8 °C 1012.4 hPa SSW 14.8 km/h 14.8 km/h 65 % 0.0 mm 97.0 W/m2 CLR
18:29 14.1 °C 7.6 °C 1012.4 hPa SW 18.5 km/h 18.5 km/h 65 % 0.0 mm 102.0 W/m2 CLR
18:34 14.0 °C 8.2 °C 1012.4 hPa South 18.5 km/h 18.5 km/h 68 % 0.0 mm 100.0 W/m2 CLR
18:39 13.7 °C 8.1 °C 1012.4 hPa South 18.5 km/h 18.5 km/h 69 % 0.0 mm 81.0 W/m2 CLR
18:44 13.6 °C 8.7 °C 1012.4 hPa South 5.6 km/h 5.6 km/h 72 % 0.0 mm 76.0 W/m2 FEW
18:49 13.6 °C 8.6 °C 1012.4 hPa South 5.6 km/h 5.6 km/h 72 % 0.0 mm 67.0 W/m2 FEW
18:54 13.6 °C 9.0 °C 1012.4 hPa Calm     74 % 0.0 mm 47.0 W/m2 SCT
18:59 13.5 °C 8.8 °C 1012.4 hPa South 5.6 km/h 5.6 km/h 73 % 0.0 mm 46.0 W/m2 SCT
19:04 13.5 °C 8.9 °C 1012.4 hPa South 8.0 km/h 8.0 km/h 74 % 0.0 mm 46.0 W/m2 SCT
19:09 13.5 °C 8.9 °C 1012.4 hPa SSW 5.6 km/h 5.6 km/h 74 % 0.0 mm 42.0 W/m2 SCT
19:14 13.4 °C 9.1 °C 1012.4 hPa SSE 4.8 km/h 4.8 km/h 75 % 0.3 mm 40.0 W/m2 RA
19:19 13.3 °C 9.3 °C 1012.1 hPa South 5.6 km/h 5.6 km/h 77 % 0.3 mm 49.0 W/m2 BKN
19:24 13.2 °C 9.2 °C 1012.4 hPa South 7.4 km/h 7.4 km/h 77 % 0.3 mm 51.0 W/m2 SCT
19:29 13.1 °C 9.1 °C 1012.4 hPa South 8.0 km/h 8.0 km/h 77 % 0.3 mm 51.0 W/m2 SCT
19:34 12.9 °C 9.2 °C 1012.4 hPa SSE 5.6 km/h 5.6 km/h 78 % 0.3 mm 46.0 W/m2 SCT
19:39 12.9 °C 9.3 °C 1012.4 hPa South 5.6 km/h 5.6 km/h 79 % 0.3 mm 35.0 W/m2 SCT
19:44 12.8 °C 9.4 °C 1012.4 hPa SSE 7.4 km/h 7.4 km/h 80 % 0.5 mm 26.0 W/m2 RA
19:49 12.6 °C 9.4 °C 1012.4 hPa South 9.7 km/h 9.7 km/h 81 % 0.5 mm 18.0 W/m2 BKN
19:54 12.5 °C 9.5 °C 1012.4 hPa South 5.6 km/h 5.6 km/h 82 % 0.5 mm 16.0 W/m2 BKN
19:59 12.4 °C 9.6 °C 1012.4 hPa SSW 9.3 km/h 9.3 km/h 83 % 0.5 mm 16.0 W/m2 BKN
20:04 12.3 °C 9.5 °C 1012.8 hPa Calm     83 % 0.5 mm 14.0 W/m2 RA
20:09 12.2 °C 9.4 °C 1012.4 hPa SSE 9.3 km/h 9.3 km/h 83 % 0.5 mm 16.0 W/m2 BKN
20:14 12.1 °C 9.5 °C 1012.4 hPa Calm     84 % 0.5 mm 18.0 W/m2 BKN
20:20 12.1 °C 9.4 °C 1012.4 hPa SE 3.7 km/h   84 % 0.5 mm 21.0 W/m2 BKN
20:25 12.0 °C 9.6 °C 1012.8 hPa SE 5.6 km/h 5.6 km/h 85 % 0.5 mm 30.0 W/m2 BKN
20:30 12.1 °C 9.6 °C 1012.8 hPa Calm     85 % 0.5 mm 39.0 W/m2 BKN
20:35 12.1 °C 9.6 °C 1012.8 hPa SE 5.6 km/h 5.6 km/h 85 % 0.5 mm 33.0 W/m2 BKN
20:40 12.0 °C 9.6 °C 1012.8 hPa Calm     85 % 0.5 mm 23.0 W/m2 BKN
20:45 11.9 °C 9.5 °C 1012.8 hPa Calm     85 % 0.3 mm 14.0 W/m2 BKN
20:50 11.9 °C 9.7 °C 1012.8 hPa Calm     86 % 0.3 mm 9.0 W/m2 BKN
20:55 11.9 °C 9.6 °C 1012.8 hPa Calm     86 % 0.3 mm 5.0 W/m2 OVC
21:00 11.8 °C 9.6 °C 1012.8 hPa Calm     86 % 0.3 mm 0.0 W/m2 OVC
21:05 11.8 °C 9.5 °C 1012.8 hPa Calm     86 % 0.0 mm 0.0 W/m2 CLR
21:10 11.8 °C 9.5 °C 1012.8 hPa Calm     86 % 0.0 mm 0.0 W/m2 CLR
21:15 11.8 °C 9.3 °C 1012.8 hPa Calm     85 % 0.0 mm 0.0 W/m2 CLR
21:20 11.7 °C 9.3 °C 1012.8 hPa Calm     85 % 0.0 mm 0.0 W/m2 CLR
21:25 11.7 °C 9.3 °C 1012.8 hPa Calm     85 % 0.0 mm 0.0 W/m2 CLR
21:30 11.7 °C 9.4 °C 1012.8 hPa Calm     86 % 0.0 mm 0.0 W/m2 CLR
21:35 11.6 °C 9.1 °C 1012.8 hPa Calm     85 % 0.0 mm 0.0 W/m2 CLR
21:40 11.5 °C 9.1 °C 1012.8 hPa Calm     85 % 0.0 mm 0.0 W/m2 CLR
21:45 11.4 °C 8.9 °C 1012.8 hPa Calm     85 % 0.0 mm 0.0 W/m2 CLR
21:50 11.3 °C 8.7 °C 1013.1 hPa Calm     84 % 0.0 mm 0.0 W/m2 CLR
21:55 11.1 °C 8.6 °C 1013.1 hPa Calm     85 % 0.0 mm 0.0 W/m2 CLR
22:00 11.0 °C 8.7 °C 1012.8 hPa Calm     86 % 0.0 mm 0.0 W/m2 CLR
22:05 11.0 °C 8.7 °C 1013.1 hPa Calm     86 % 0.0 mm 0.0 W/m2 CLR
22:10 10.9 °C 8.7 °C 1013.1 hPa Calm     86 % 0.0 mm 0.0 W/m2 CLR
22:15 10.9 °C 8.7 °C 1013.1 hPa Calm     86 % 0.0 mm 0.0 W/m2 CLR
22:20 10.9 °C 8.8 °C 1013.4 hPa Calm     87 % 0.0 mm 0.0 W/m2 CLR
22:25 10.8 °C 8.7 °C 1013.1 hPa Calm     87 % 0.0 mm 0.0 W/m2 CLR
22:30 10.7 °C 8.7 °C 1013.1 hPa Calm     87 % 0.0 mm 0.0 W/m2 CLR
22:35 10.6 °C 8.6 °C 1013.1 hPa Calm     87 % 0.0 mm 0.0 W/m2 CLR
22:40 10.6 °C 8.5 °C 1013.4 hPa Calm     87 % 0.0 mm 0.0 W/m2 CLR
22:45 10.4 °C 8.4 °C 1013.1 hPa Calm     87 % 0.0 mm 0.0 W/m2 CLR
22:50 10.4 °C 8.3 °C 1013.4 hPa Calm     87 % 0.0 mm 0.0 W/m2 CLR
22:55 10.3 °C 8.2 °C 1013.4 hPa Calm     87 % 0.0 mm 0.0 W/m2 CLR
23:00 10.2 °C 8.1 °C 1013.4 hPa Calm     87 % 0.0 mm 0.0 W/m2 CLR
23:05 10.3 °C 8.2 °C 1013.1 hPa Calm     87 % 0.0 mm 0.0 W/m2 CLR
23:10 10.3 °C 8.1 °C 1013.1 hPa Calm     86 % 0.0 mm 0.0 W/m2 CLR
23:15 10.3 °C 8.1 °C 1013.1 hPa Calm     86 % 0.0 mm 0.0 W/m2 CLR
23:20 10.3 °C 8.1 °C 1013.1 hPa Calm     86 % 0.0 mm 0.0 W/m2 CLR
23:25 10.2 °C 7.8 °C 1013.1 hPa Calm     85 % 0.0 mm 0.0 W/m2 CLR
23:30 10.2 °C 7.8 °C 1013.1 hPa Calm     85 % 0.0 mm 0.0 W/m2 CLR
23:35 10.1 °C 7.9 °C 1013.1 hPa Calm     86 % 0.0 mm 0.0 W/m2 CLR
23:40 10.1 °C 7.8 °C 1013.4 hPa Calm     86 % 0.0 mm 0.0 W/m2 CLR
23:45 10.0 °C 7.6 °C 1013.4 hPa Calm     85 % 0.0 mm 0.0 W/m2 CLR
23:50 9.9 °C 7.7 °C 1013.1 hPa Calm     86 % 0.0 mm 0.0 W/m2 CLR
23:55 9.7 °C 7.4 °C 1013.1 hPa ENE 5.6 km/h 5.6 km/h 86 % 0.0 mm 0.0 W/m2 CLR
Lo Temps de Massalio
Compliments of Weather Underground - 1.25 mb